Regional Weather Roundup
Issued by NWS

Home | Current Version | Previous Version | Graphics & Text | Print | Product List | Glossary On
Versions: 1 2 3 4 5 6 7 8 9 10 11 12 13 14 15 16 17 18 19 20 21 22 23 24 25 26 27 28 29 30 31 32 33 34 35 36 37 38 39 40 41 42 43 44 45 46 47 48 49 50
000
ASUS43 KDTX 302110
RWRMI
MICHIGAN HOURLY REGIONAL WEATHER ROUNDUP
NATIONAL WEATHER SERVICE DETROIT/PONTIAC MI
500 PM EDT THU OCT 30 2014

NOTE: "FAIR" INDICATES FEW OR NO CLOUDS BELOW 12,000 FEET WITH NO
SIGNIFICANT WEATHER AND/OR OBSTRUCTION TO VISIBILITY.

MIZ047>049-052>055-059>063-066>070-074>076-081>083-302200-
SOUTHEAST LOWER MICHIGAN

CITY           SKY/WX    TMP DP  RH WIND       PRES   REMARKS
ADRIAN         CLOUDY    47  37  68 W7        30.08S
ALMA           CLOUDY    48  39  70 SW3       30.04S
ANN ARBOR      CLOUDY    49  34  56 W7        30.06F
BAD AXE        CLOUDY    46  38  71 SW7       30.05S
DETROIT CITY   CLOUDY    51  33  50 VRB3      30.07S
DETROIT        CLOUDY    49  34  56 SW5       30.08S
FLINT          CLOUDY    50  35  56 W8        30.06S
GROSSE ILE     CLOUDY    48  36  61 SW3       30.06S
HILLSDALE      CLOUDY    48  35  60 SW3       30.06S
HOWELL         CLOUDY    47  35  64 SW5       30.05S

CITY           SKY/WX    TMP DP  RH WIND       PRES   REMARKS
JACKSON        CLOUDY    48  35  60 SW7       30.06S
LAMBERTVILLE   CLOUDY    50  34  53 NW3       30.08F
LANSING        CLOUDY    48  36  63 SW9       30.06S
LAPEER         NOT AVBL
MASON          CLOUDY    47  36  64 SW3       30.06S
MONROE         CLOUDY    50  36  57 W6        30.06F
MT. CLEMENS    CLOUDY    48  38  68 S7        30.04S
PONTIAC        PTSUNNY   48  32  53 W8        30.05S
PORT HOPE        N/A     47  36  65 SW7       30.03F
PORT HURON     CLOUDY    48  36  61 CALM      30.06S
TRI CITIES     CLOUDY    50  37  61 SW9       30.04F
YPSILANTI      CLOUDY    52  34  50 W7        30.07F
$$
MIZ043>046-050>051-056>058-064>065-071>073-077>080-302200-
SOUTHWEST LOWER MICHIGAN

CITY           SKY/WX    TMP DP  RH WIND       PRES   REMARKS
BATTLE CREEK   CLOUDY    48  34  58 SW8       30.06F
BENTON HARBOR  CLOUDY    48  35  60 W12       30.06F
BIG RAPIDS     CLOUDY    47  41  81 W7        30.01F
COLDWATER      CLOUDY    49  37  61 W5        30.06F
HOLLAND        CLOUDY    50  38  63 SW10      30.06F
GRAND RAPIDS   CLOUDY    49  37  63 W13       30.05S
KALAMAZOO      CLOUDY    50  35  56 SW6       30.06F
MARSHALL       CLOUDY    47  35  62 W6        30.06S
MUSKEGON       PTSUNNY   49  35  58 SW12      30.05F
$$
MIZ016>042-302200-
NORTHERN LOWER MICHIGAN

CITY           SKY/WX    TMP DP  RH WIND       PRES   REMARKS
ALPENA         LGT RAIN  43  39  86 CALM      30.01F
BEAVER ISLAND  CLOUDY    45  39  80 W8        29.98S
BELLAIRE       CLOUDY    46  38  71 SW5       30.00S
CADILLAC       CLOUDY    43  38  84 SW8       29.99F
CHARLEVOIX     LGT RAIN  44  39  83 SW7       30.01F
FRANKFORT      CLOUDY    46  37  71 SW7       30.01S
GAYLORD        CLOUDY    41  39  93 SW5       29.99S
GRAYLING       CLOUDY    42  39  88 W6        30.01S
HARBOR SPRINGS RAIN      43  40  89 SW7       29.98F
HOUGHTON LAKE  CLOUDY    43  38  82 W8        30.01F
MANISTEE       CLOUDY    46  36  66 W12       30.03S
OSCODA         DRIZZLE   46  38  72 SW5       30.02S
PELLSTON       LGT RAIN  44  40  85 W6        29.99F
TRAVERSE CITY  CLOUDY    47  36  65 W7        30.00F
$$
MIZ007>008-015-302200-
EASTERN UPPER MICHIGAN

CITY           SKY/WX    TMP DP  RH WIND       PRES   REMARKS
KINROSS        CLOUDY    41  39  93 SW3       29.98S
MACKINAC ISLAN LGT RAIN  43  41  95 CALM      29.98S
NEWBERRY       LGT RAIN  41  37  87 SW8       29.96F
S. S. MARIE    LGT RAIN  42  38  85 S6        29.97F
$$
MIZ004>006-011>014-085-302200-
CENTRAL UPPER MICHIGAN

CITY           SKY/WX    TMP DP  RH WIND       PRES   REMARKS
MANISTIQUE     LGT RAIN  42  38  86 NW3       29.97S
ESCANABA       CLOUDY    45  32  61 NW7       29.98S
MENOMINEE      CLOUDY    46  32  57 W6        29.99F
SAWYER-GWINN   LGT RAIN  41  36  81 NW6       29.97S
$$
MIZ001>003-009>011-084-302200-
WESTERN UPPER MICHIGAN

CITY           SKY/WX    TMP DP  RH WIND       PRES   REMARKS
IRON MOUNTAIN  CLOUDY    43  32  65 NW12      29.98R
HOUGHTON       CLOUDY    39  36  89 N8        29.97S
COPPER HARBOR    N/A     41  37  86 N9        29.98S
IRONWOOD       CLOUDY    39  36  87 NW12      30.01S
$$

ABBREVIATIONS USED IN REMARKS
   TC - TEMPERATURE IN CELSIUS
  WCI - WIND CHILL INDEX
   HX - HEAT INDEX
  VSB - VISIBILITY




USA.gov is the U.S. government's official web portal to all federal, state and local government web resources and services.